Погода в Еремине

Россия / Свердловская область     59°49′36″N   63°10′31″E
темп.,
°C
ветер,
м/с
пор.,
м/с
влажн.,
%
обл.,
%
осадки,
мм/ч
давл.,
гПа
погр.,
м
20 июня, вс
вс2023:00+13юз399997 2.3 1004345
02:00+14з5139781 1.8 1002653
05:00+12сз814850 1.8 10031048
08:00+12зсз8165934 0.1 10041605
11:00+13сз81543100 0.1 10051946
14:00+13ссз81744100 0.0 10061837
17:00+10ссз91865100 0.1 10101584
20:00+10ссз8176393 0.2 10131235
21 июня, пн
пн2123:00+9с7157072 0.2 1016887
02:00+8ссз614659 0.0 1018788
05:00+7ссз512687 0.0 1020606
08:00+11с465799 0.0 1021732
11:00+15ссз344697 0.0 10211422
14:00+17ссз3433100 0.0 10201904
17:00+16сз3435100 0.0 10201722
20:00+15зсз2548100 0.0 1020339
22 июня, вт
вт2223:00+11зсз2465100 0.0 1019107
02:00+10зсз2370100 0.0 101974
05:00+10юз1170100 0.0 101817
08:00+10вюв1179100 0.1 101845
11:00+13всв2264100 0.1 1017475
14:00+14ссв2262100 0.0 1018503
17:00+17ссв345287 0.0 10181319
20:00+16с1258100 0.0 101981
23 июня, ср
ср2323:00+11сз227232 0.0 101917
02:00+11всв2367100 0.0 102077
05:00+10всв23775 0.0 102270
08:00+15св24545 0.0 1023676
11:00+18ссв343992 0.0 10231933
14:00+21ссв23325 0.0 10222271
17:00+21с23305 0.0 10222384
20:00+18всв224937 0.0 102241
24 июня, чт
чт2423:00+12юв24610 0.0 102160
02:00+10ююз226222 0.0 102230
05:00+10ююз246692 0.0 102182
08:00+17ююз234734 0.0 1020353
11:00+23ююз333467 0.0 10181418
14:00+25зюз3430100 0.0 10161987
17:00+26юз3433100 0.0 10141998
20:00+22ююв36575 0.0 1012158